Location: Minneapolis
(44.9800°N, 93.2640°W)
Time: 09:44:25
(UTC-05:00)

N. Korean satellite - Visible Passes

Search period start: 18 October 2017 00:00
Search period end: 28 October 2017 00:00
Orbit: 459 x 517 km, 97.2° (Epoch: 17 October)

Date Brightness Start Highest point End Pass type
(mag) Time Alt. Az. Time Alt. Az. Time Alt. Az.
18 Oct 9.2 20:00:53 10° SSW 20:03:41 22° W 20:06:29 10° NW visible
19 Oct 7.9 19:36:54 10° S 19:40:15 42° W 19:43:36 10° NNW visible
20 Oct 10.2 07:03:30 10° ENE 07:05:06 13° E 07:06:43 10° ESE visible
20 Oct 6.5 19:13:22 10° SSE 19:16:53 87° WSW 19:20:23 10° NNW visible
21 Oct 6.8 18:50:14 10° SSE 18:53:35 45° ENE 18:56:56 10° N visible
21 Oct 10.0 20:26:05 10° WSW 20:27:21 12° W 20:28:38 10° WNW visible
22 Oct 9.2 20:01:05 10° SSW 20:03:50 21° W 20:06:35 10° NW visible
23 Oct 7.9 19:37:04 10° S 19:40:23 41° W 19:43:42 10° NNW visible
24 Oct 10.1 07:03:32 10° ENE 07:05:14 13° E 07:06:56 10° ESE visible
24 Oct 6.5 19:13:31 10° SSE 19:17:00 86° WSW 19:20:28 10° NNW visible
25 Oct 6.7 18:50:21 10° SSE 18:53:40 45° ENE 18:57:00 10° N visible
25 Oct 10.0 20:26:19 10° WSW 20:27:29 11° W 20:28:38 10° WNW visible
26 Oct 9.2 20:01:13 10° SW 20:03:55 21° W 20:06:38 10° NW visible
27 Oct 7.9 19:37:09 10° S 19:40:26 40° W 19:43:44 10° NNW visible
